Freeland, MI

8:23 PM EST on February 24, 2017 (GMT -0500)
MBS International

Weather History for KMBS - November, 2012

Change the Weather History Date:

Thursday, November 15, 2012

  Actual Average Record
Temperature  
Mean Temperature 34 °F 39 °F  
Max Temperature 43 °F 46 °F 64 °F (2015)
Min Temperature 26 °F 32 °F 14 °F (1996)
Degree Days  
Heating Degree Days 30    
Month to date heating degree days  
Since 1 July heating degree days  
Cooling Degree Days 0    
Month to date cooling degree days  
Year to date cooling degree days  
Moisture  
Dew Point 26 °F    
Average Humidity 73    
Maximum Humidity 86    
Minimum Humidity 58    
Precipitation  
Precipitation 0.00 in 0.11 in 0.56 in (2005)
Month to date precipitation 1.41  
Year to date precipitation 28.39  
Snow  
Snow 0.00 in - - ()
Month to date snowfall  
Since 1 July snowfall  
Since 1 September snowfall  
Snow Depth -    
Sea Level Pressure  
Sea Level Pressure 30.41 in    
Wind  
Wind Speed 3 mph (SSW)    
Max Wind Speed 8 mph    
Max Gust Speed -    
Visibility 9 miles    
Events      
T = Trace of Precipitation, MM = Missing Value Source: NWS Daily Summary

Daily Weather History Graph

Daily Weather History Graph

Search for Another Location

Airport or City:

Trip Planner

Search our weather history database for the weather conditions in past years. The results will help you decide how hot, cold, wet, or windy it might be!

Date:

Astronomy

Nov. 15, 2012 Rise Set
Actual Time 7:30 AM EST 5:10 PM EST
Civil Twilight 6:59 AM EST 5:41 PM EST
Nautical Twilight 6:25 AM EST 6:16 PM EST
Astronomical Twilight 5:51 AM EST 6:50 PM EST
Moon 9:27 AM EST (11/15) 6:59 PM EST (11/15)
Length of Visible Light 10h 42m
Length of Day
9h 40m
Waxing Crescent, 5% of the Moon is Illuminated
Nov 15
Waxing Crescent
Nov 20
First Quarter
Nov 28
Full
Dec 6
Last Quarter
Dec 13
New

Hourly Weather History & Observations

Time (EST) Temp. Windchill Dew Point Humidity Pressure Visibility Wind Dir Wind Speed Gust Speed Precip Events Conditions
12:53 AM 30.0 °F 25.2 °F 23.0 °F 75% 30.47 in 10.0 mi South 4.6 mph - N/A   Clear
1:53 AM 28.9 °F - 23.0 °F 78% 30.46 in 10.0 mi Calm Calm - N/A   Clear
2:53 AM 26.1 °F 17.6 °F 21.9 °F 84% 30.45 in 10.0 mi SE 8.1 mph - N/A   Clear
3:53 AM 28.0 °F 24.2 °F 23.0 °F 81% 30.44 in 10.0 mi SSE 3.5 mph - N/A   Clear
4:53 AM 28.9 °F - 23.0 °F 78% 30.43 in 9.0 mi Calm Calm - N/A   Clear
5:53 AM 28.0 °F - 21.9 °F 78% 30.43 in 8.0 mi Calm Calm - N/A   Clear
6:53 AM 26.6 °F - 23.0 °F 86% 30.41 in 9.0 mi Calm Calm - N/A   Clear
7:53 AM 27.0 °F - 23.0 °F 85% 30.44 in 6.0 mi Calm Calm - N/A   Clear
8:53 AM 32.0 °F - 27.0 °F 82% 30.45 in 6.0 mi Calm Calm - N/A   Haze
9:53 AM 36.0 °F 33.3 °F 28.9 °F 76% 30.44 in 10.0 mi South 3.5 mph - N/A   Clear
10:53 AM 39.0 °F 36.8 °F 28.9 °F 67% 30.44 in 10.0 mi SSW 3.5 mph - N/A   Clear
11:53 AM 39.9 °F 35.8 °F 28.9 °F 65% 30.42 in 10.0 mi Variable 5.8 mph - N/A   Clear
12:53 PM 41.0 °F 37.1 °F 28.9 °F 62% 30.40 in 10.0 mi SSW 5.8 mph - N/A   Clear
1:53 PM 42.1 °F 37.7 °F 28.9 °F 60% 30.38 in 10.0 mi SW 6.9 mph - N/A   Clear
2:53 PM 43.0 °F 38.8 °F 28.9 °F 58% 30.37 in 10.0 mi SW 6.9 mph - N/A   Clear
3:53 PM 43.0 °F 40.3 °F 30.0 °F 60% 30.37 in 10.0 mi WSW 4.6 mph - N/A   Clear
4:53 PM 41.0 °F 38.0 °F 28.9 °F 62% 30.37 in 10.0 mi WSW 4.6 mph - N/A   Clear
5:53 PM 39.0 °F 36.8 °F 28.0 °F 65% 30.38 in 10.0 mi WSW 3.5 mph - N/A   Clear
6:53 PM 37.0 °F 34.5 °F 28.0 °F 70% 30.38 in 10.0 mi SW 3.5 mph - N/A   Clear
7:53 PM 36.0 °F 33.3 °F 27.0 °F 70% 30.38 in 9.0 mi SW 3.5 mph - N/A   Clear
8:53 PM 34.0 °F 31.0 °F 27.0 °F 75% 30.38 in 8.0 mi SSW 3.5 mph - N/A   Clear
9:53 PM 33.1 °F 27.7 °F 27.0 °F 78% 30.39 in 8.0 mi SW 5.8 mph - N/A   Clear
10:53 PM 33.1 °F 28.7 °F 26.1 °F 75% 30.39 in 7.0 mi SW 4.6 mph - N/A   Clear
11:53 PM 32.0 °F 27.5 °F 26.1 °F 79% 30.39 in 7.0 mi SW 4.6 mph - N/A   Clear